| time (UTC) | temp C | wind direction | speed KPH | gust KPH | rain 1hr cm | rain 24hr cm | rain mn cm | humidity % | barometer mb |
| 20260506105004 | 12 | 219 | 0.0 | 4.8 | 0.00 | 0.00 | 0.00 | 53 | 1018.6 |
| 20260506104503 | 11 | 246 | 0.0 | 8.0 | 0.00 | 0.00 | 0.00 | 54 | 1018.5 |
| 20260506104004 | 11 | 44 | 0.0 | 8.0 | 0.00 | 0.00 | 0.00 | 54 | 1018.6 |
| 20260506103504 | 12 | 198 | 1.6 | 8.0 | 0.00 | 0.00 | 0.00 | 55 | 1018.6 |
| 20260506103004 | 11 | 187 | 1.6 | 4.8 | 0.00 | 0.00 | 0.00 | 57 | 1018.6 |
| 20260506102504 | 12 | 212 | 3.2 | 4.8 | 0.00 | 0.00 | 0.00 | 57 | 1018.6 |
| 20260506101503 | 11 | 6 | 1.6 | 8.0 | 0.00 | 0.00 | 0.00 | 59 | 1018.9 |
| 20260506101004 | 11 | 157 | 1.6 | 8.0 | 0.00 | 0.00 | 0.00 | 57 | 1019.0 |
| 20260506100503 | 11 | 248 | 3.2 | 8.0 | 0.00 | 0.00 | 0.00 | 58 | 1018.6 |
| 20260506095505 | 11 | 106 | 3.2 | 4.8 | 0.00 | 0.00 | 0.00 | 58 | 1019.0 |
| 20260506095004 | 11 | 216 | 3.2 | 4.8 | 0.00 | 0.00 | 0.00 | 59 | 1019.0 |
| 20260506094504 | 11 | 205 | 1.6 | 4.8 | 0.00 | 0.00 | 0.00 | 60 | 1019.1 |
| 20260506094003 | 11 | 210 | 0.0 | 8.0 | 0.00 | 0.00 | 0.00 | 58 | 1019.0 |
| 20260506093004 | 10 | 167 | 1.6 | 8.0 | 0.00 | 0.00 | 0.00 | 58 | 1019.0 |
| 20260506092004 | 10 | 170 | 3.2 | 4.8 | 0.00 | 0.00 | 0.00 | 63 | 1019.3 |
| 20260506091504 | 10 | 262 | 1.6 | 9.7 | 0.00 | 0.00 | 0.00 | 63 | 1019.3 |
| 20260506090504 | 10 | 146 | 3.2 | 9.7 | 0.00 | 0.00 | 0.00 | 63 | 1019.3 |
| 20260506090004 | 10 | 340 | 1.6 | 4.8 | 0.00 | 0.00 | 0.00 | 65 | 1019.3 |
| 20260506085504 | 10 | 77 | 1.6 | 9.7 | 0.00 | 0.00 | 0.00 | 64 | 1019.3 |
| 20260506085004 | 10 | 54 | 1.6 | 9.7 | 0.00 | 0.00 | 0.00 | 65 | 1019.3 |
| 20260506084503 | 10 | 186 | 3.2 | 9.7 | 0.00 | 0.00 | 0.00 | 66 | 1019.3 |
| 20260506084003 | 9 | 199 | 3.2 | 9.7 | 0.00 | 0.00 | 0.00 | 64 | 1019.4 |
| 20260506083503 | 9 | 259 | 1.6 | 8.0 | 0.00 | 0.00 | 0.00 | 67 | 1019.7 |
| 20260506083003 | 9 | 102 | 1.6 | 8.0 | 0.00 | 0.00 | 0.00 | 64 | 1019.3 |
| 20260506081503 | 8 | 227 | 0.0 | 4.8 | 0.00 | 0.00 | 0.00 | 68 | 1019.7 |
| 20260506081003 | 8 | 210 | 1.6 | 4.8 | 0.00 | 0.00 | 0.00 | 66 | 1019.7 |
| 20260506080505 | 8 | 185 | 1.6 | 4.8 | 0.00 | 0.00 | 0.00 | 69 | 1019.7 |
| 20260506073504 | 7 | 215 | 1.6 | 3.2 | 0.00 | 0.00 | 0.00 | 76 | 1019.8 |
| 20260506073004 | 7 | 218 | 1.6 | 3.2 | 0.00 | 0.00 | 0.00 | 77 | 1019.7 |
| 20260506072003 | 6 | 199 | 0.0 | 3.2 | 0.00 | 0.00 | 0.00 | 80 | 1020.0 |
| 20260506071504 | 6 | 220 | 0.0 | 3.2 | 0.00 | 0.00 | 0.00 | 81 | 1019.8 |
| 20260506070504 | 5 | 186 | 0.0 | 3.2 | 0.00 | 0.00 | 0.00 | 83 | 1020.0 |
| 20260506062003 | 3 | 180 | 3.2 | 3.2 | 0.00 | 0.00 | 0.00 | 91 | 1019.7 |
| 20260506061504 | 3 | 187 | 1.6 | 3.2 | 0.00 | 0.00 | 0.00 | 92 | 1019.7 |
| 20260506061004 | 3 | 203 | 0.0 | 3.2 | 0.00 | 0.00 | 0.00 | 92 | 1020.0 |
| 20260506060504 | 2 | 220 | 0.0 | 1.6 | 0.00 | 0.00 | 0.00 | 93 | 1019.7 |
| 20260506051004 | 1 | 201 | 1.6 | 3.2 | 0.00 | 0.00 | 0.00 | 93 | 1020.0 |
| 20260506045003 | 2 | 199 | 0.0 | 1.6 | 0.00 | 0.00 | 0.00 | 94 | 1020.0 |
| 20260506044003 | 1 | 222 | 0.0 | 1.6 | 0.00 | 0.00 | 0.00 | 94 | 1020.0 |
| 20260506043003 | 1 | 219 | 0.0 | 1.6 | 0.00 | 0.00 | 0.00 | 94 | 1020.2 |
| 20260506042504 | 1 | 220 | 0.0 | 1.6 | 0.00 | 0.00 | 0.00 | 94 | 1020.0 |
| 20260506042003 | 1 | 224 | 0.0 | 1.6 | 0.00 | 0.00 | 0.00 | 93 | 1020.0 |
| 20260506041504 | 1 | 195 | 0.0 | 1.6 | 0.00 | 0.00 | 0.00 | 93 | 1020.0 |
| 20260506041003 | 1 | 199 | 1.6 | 1.6 | 0.00 | 0.00 | 0.00 | 93 | 1020.3 |
| 20260506040004 | 1 | 222 | 0.0 | 0.0 | 0.00 | 0.00 | 0.00 | 93 | 1020.1 |
| 20260506034503 | 2 | 198 | 1.6 | 3.2 | 0.00 | 0.00 | 0.00 | 93 | 1020.3 |
| 20260506034003 | 2 | 205 | 1.6 | 3.2 | 0.00 | 0.00 | 0.00 | 93 | 1020.3 |
| 20260506033004 | 2 | 202 | 1.6 | 3.2 | 0.00 | 0.00 | 0.00 | 93 | 1020.7 |
| 20260506032503 | 2 | 167 | 1.6 | 3.2 | 0.00 | 0.00 | 0.00 | 93 | 1020.6 |
| 20260506032004 | 2 | 178 | 1.6 | 3.2 | 0.00 | 0.00 | 0.00 | 93 | 1020.3 |
| 20260506031503 | 2 | 212 | 0.0 | 0.0 | 0.00 | 0.00 | 0.00 | 93 | 1020.3 |
| 20260506030503 | 2 | 231 | 0.0 | 3.2 | 0.00 | 0.00 | 0.00 | 93 | 1020.6 |
| 20260506030004 | 2 | 221 | 0.0 | 3.2 | 0.00 | 0.00 | 0.00 | 93 | 1020.3 |
| 20260506025503 | 2 | 203 | 0.0 | 3.2 | 0.00 | 0.00 | 0.00 | 93 | 1020.7 |
| 20260506025004 | 2 | 211 | 1.6 | 3.2 | 0.00 | 0.00 | 0.00 | 93 | 1020.4 |
| 20260506024504 | 2 | 189 | 1.6 | 3.2 | 0.00 | 0.00 | 0.00 | 93 | 1020.3 |
| 20260506024004 | 2 | 186 | 1.6 | 3.2 | 0.00 | 0.00 | 0.00 | 93 | 1020.4 |
| 20260506023504 | 2 | 221 | 1.6 | 4.8 | 0.00 | 0.00 | 0.00 | 93 | 1020.7 |
| 20260506023004 | 2 | 212 | 1.6 | 4.8 | 0.00 | 0.00 | 0.00 | 93 | 1020.7 |
| 20260506022503 | 3 | 182 | 3.2 | 3.2 | 0.00 | 0.00 | 0.00 | 93 | 1020.3 |
| 20260506022004 | 3 | 206 | 1.6 | 3.2 | 0.00 | 0.00 | 0.00 | 93 | 1020.7 |
| 20260506021504 | 2 | 185 | 0.0 | 3.2 | 0.00 | 0.00 | 0.00 | 93 | 1020.6 |
| 20260506021004 | 2 | 218 | 0.0 | 3.2 | 0.00 | 0.00 | 0.00 | 93 | 1020.7 |
| 20260506020503 | 2 | 222 | 0.0 | 3.2 | 0.00 | 0.00 | 0.00 | 92 | 1020.7 |
| 20260506020004 | 3 | 209 | 0.0 | 3.2 | 0.00 | 0.00 | 0.00 | 92 | 1020.3 |
| 20260506015504 | 3 | 187 | 1.6 | 3.2 | 0.00 | 0.00 | 0.00 | 92 | 1020.7 |
| 20260506015004 | 3 | 203 | 0.0 | 3.2 | 0.00 | 0.00 | 0.00 | 92 | 1020.7 |
| 20260506014504 | 3 | 214 | 0.0 | 4.8 | 0.00 | 0.00 | 0.00 | 92 | 1020.7 |
| 20260506014003 | 3 | 192 | 1.6 | 4.8 | 0.00 | 0.00 | 0.00 | 91 | 1020.7 |
| 20260506013503 | 3 | 204 | 1.6 | 3.2 | 0.00 | 0.00 | 0.00 | 91 | 1020.7 |
| 20260506013004 | 3 | 208 | 1.6 | 4.8 | 0.00 | 0.00 | 0.00 | 91 | 1020.7 |
| 20260506012504 | 3 | 220 | 0.0 | 4.8 | 0.00 | 0.00 | 0.00 | 91 | 1020.7 |
| 20260506012003 | 3 | 196 | 1.6 | 4.8 | 0.00 | 0.03 | 0.00 | 90 | 1020.7 |
| 20260506011503 | 3 | 189 | 3.2 | 4.8 | 0.00 | 0.03 | 0.00 | 90 | 1020.7 |
| 20260506011004 | 3 | 208 | 1.6 | 3.2 | 0.00 | 0.03 | 0.00 | 89 | 1020.9 |
| 20260506010504 | 4 | 190 | 1.6 | 3.2 | 0.00 | 0.05 | 0.00 | 88 | 1020.7 |
| 20260506005004 | 5 | 211 | 0.0 | 1.6 | 0.00 | 0.05 | 0.00 | 86 | 1020.9 |
| 20260506004505 | 5 | 202 | 0.0 | 1.6 | 0.00 | 0.05 | 0.00 | 87 | 1021.0 |
| 20260506004004 | 5 | 221 | 0.0 | 0.0 | 0.00 | 0.05 | 0.00 | 87 | 1021.0 |
| 20260506003004 | 5 | 225 | 0.0 | 1.6 | 0.00 | 0.05 | 0.00 | 87 | 1021.0 |
| 20260506002504 | 5 | 223 | 0.0 | 1.6 | 0.00 | 0.05 | 0.00 | 88 | 1021.1 |
| 20260506002003 | 5 | 217 | 0.0 | 1.6 | 0.00 | 0.05 | 0.00 | 87 | 1021.0 |
| 20260506001503 | 5 | 218 | 1.6 | 1.6 | 0.00 | 0.05 | 0.00 | 87 | 1021.1 |
| 20260506001003 | 5 | 195 | 1.6 | 1.6 | 0.00 | 0.05 | 0.00 | 86 | 1021.3 |
| 20260506000504 | 5 | 215 | 0.0 | 1.6 | 0.00 | 0.05 | 0.00 | 86 | 1021.1 |
| 20260506000004 | 6 | 218 | 0.0 | 1.6 | 0.00 | 0.05 | 0.00 | 86 | 1021.2 |
| 20260505235504 | 6 | 197 | 0.0 | 1.6 | 0.00 | 0.05 | 0.00 | 85 | 1021.1 |
| 20260505234504 | 6 | 228 | 0.0 | 1.6 | 0.00 | 0.05 | 0.00 | 85 | 1021.3 |
| 20260505234005 | 6 | 203 | 0.0 | 1.6 | 0.00 | 0.05 | 0.00 | 85 | 1021.3 |
| 20260505233504 | 6 | 227 | 0.0 | 1.6 | 0.00 | 0.05 | 0.00 | 86 | 1021.3 |
| 20260505233004 | 6 | 222 | 0.0 | 1.6 | 0.00 | 0.05 | 0.00 | 86 | 1021.3 |
| 20260505232504 | 5 | 199 | 0.0 | 1.6 | 0.00 | 0.05 | 0.00 | 86 | 1021.3 |
| 20260505232003 | 6 | 254 | 0.0 | 1.6 | 0.00 | 0.05 | 0.00 | 86 | 1021.1 |
| 20260505231503 | 5 | 286 | 0.0 | 1.6 | 0.00 | 0.05 | 0.00 | 86 | 1021.1 |
| 20260505230504 | 6 | 268 | 0.0 | 1.6 | 0.00 | 0.05 | 0.00 | 86 | 1021.3 |
| 20260505230003 | 5 | 289 | 0.0 | 1.6 | 0.00 | 0.05 | 0.00 | 86 | 1021.3 |
| 20260505225504 | 5 | 277 | 0.0 | 1.6 | 0.00 | 0.05 | 0.05 | 85 | 1021.3 |
| 20260505225004 | 5 | 256 | 0.0 | 1.6 | 0.00 | 0.05 | 0.05 | 85 | 1021.3 |
| 20260505224504 | 6 | 259 | 0.0 | 1.6 | 0.00 | 0.05 | 0.05 | 85 | 1021.3 |
| 20260505224004 | 6 | 259 | 0.0 | 0.0 | 0.00 | 0.05 | 0.05 | 84 | 1021.3 |
| 20260505223503 | 6 | 260 | 0.0 | 0.0 | 0.00 | 0.05 | 0.05 | 84 | 1021.3 |
| 20260505222504 | 6 | 260 | 0.0 | 1.6 | 0.00 | 0.05 | 0.05 | 84 | 1021.3 |
| 20260505222003 | 6 | 260 | 0.0 | 1.6 | 0.00 | 0.05 | 0.05 | 84 | 1021.3 |
| 20260505221504 | 6 | 265 | 0.0 | 1.6 | 0.00 | 0.05 | 0.05 | 83 | 1021.3 |
| 20260505221004 | 6 | 277 | 0.0 | 1.6 | 0.00 | 0.05 | 0.05 | 83 | 1021.3 |
| 20260505220503 | 6 | 246 | 0.0 | 1.6 | 0.00 | 0.05 | 0.05 | 83 | 1021.4 |
| 20260505220004 | 6 | 239 | 0.0 | 8.0 | 0.00 | 0.05 | 0.05 | 82 | 1021.4 |
| 20260505215003 | 6 | 23 | 3.2 | 8.0 | 0.00 | 0.05 | 0.05 | 82 | 1021.7 |
| 20260505214503 | 6 | 281 | 0.0 | 4.8 | 0.00 | 0.05 | 0.05 | 81 | 1021.6 |
| 20260505214004 | 6 | 303 | 1.6 | 4.8 | 0.00 | 0.05 | 0.05 | 80 | 1021.3 |
| 20260505213503 | 6 | 344 | 1.6 | 4.8 | 0.00 | 0.05 | 0.05 | 79 | 1021.3 |
| 20260505212504 | 7 | 247 | 0.0 | 1.6 | 0.00 | 0.05 | 0.05 | 78 | 1021.3 |
| 20260505212004 | 7 | 274 | 0.0 | 1.6 | 0.00 | 0.05 | 0.05 | 78 | 1021.7 |
| 20260505211004 | 7 | 300 | 0.0 | 1.6 | 0.00 | 0.05 | 0.05 | 78 | 1021.5 |
| 20260505210503 | 7 | 265 | 0.0 | 3.2 | 0.00 | 0.05 | 0.05 | 77 | 1021.3 |
| 20260505205504 | 7 | 262 | 0.0 | 3.2 | 0.00 | 0.05 | 0.05 | 77 | 1021.3 |
| 20260505205004 | 7 | 279 | 0.0 | 3.2 | 0.00 | 0.05 | 0.05 | 77 | 1021.3 |
| 20260505204503 | 7 | 268 | 0.0 | 1.6 | 0.00 | 0.05 | 0.05 | 76 | 1021.3 |
| 20260505204004 | 7 | 276 | 0.0 | 3.2 | 0.00 | 0.05 | 0.05 | 76 | 1021.3 |
| 20260505203504 | 7 | 283 | 0.0 | 8.0 | 0.00 | 0.05 | 0.05 | 76 | 1021.3 |
| 20260505203004 | 7 | 300 | 1.6 | 8.0 | 0.00 | 0.05 | 0.05 | 76 | 1021.3 |
| 20260505202503 | 8 | 293 | 3.2 | 8.0 | 0.00 | 0.05 | 0.05 | 75 | 1021.3 |
| 20260505202004 | 8 | 340 | 1.6 | 8.0 | 0.00 | 0.05 | 0.05 | 75 | 1021.3 |
| 20260505201504 | 8 | 10 | 3.2 | 8.0 | 0.00 | 0.05 | 0.05 | 75 | 1021.3 |
| 20260505201003 | 8 | 327 | 1.6 | 8.0 | 0.00 | 0.05 | 0.05 | 74 | 1021.3 |
| 20260505200504 | 8 | 354 | 1.6 | 8.0 | 0.00 | 0.05 | 0.05 | 74 | 1021.3 |
| 20260505200003 | 8 | 3 | 3.2 | 8.0 | 0.00 | 0.05 | 0.05 | 73 | 1021.3 |
| 20260505195503 | 8 | 321 | 3.2 | 8.0 | 0.00 | 0.05 | 0.05 | 73 | 1021.3 |
| 20260505195003 | 9 | 338 | 3.2 | 11.3 | 0.00 | 0.05 | 0.05 | 72 | 1021.3 |
| 20260505194503 | 9 | 8 | 1.6 | 11.3 | 0.00 | 0.05 | 0.05 | 72 | 1021.3 |
| 20260505194004 | 9 | 341 | 4.8 | 11.3 | 0.00 | 0.05 | 0.05 | 71 | 1021.3 |
| 20260505193503 | 10 | 314 | 4.8 | 12.9 | 0.00 | 0.05 | 0.05 | 71 | 1021.3 |
| 20260505193004 | 10 | 350 | 3.2 | 12.9 | 0.00 | 0.05 | 0.05 | 71 | 1021.3 |
| 20260505192503 | 10 | 358 | 3.2 | 12.9 | 0.00 | 0.05 | 0.05 | 70 | 1021.3 |
| 20260505192004 | 10 | 353 | 4.8 | 12.9 | 0.00 | 0.05 | 0.05 | 70 | 1021.1 |
| 20260505191504 | 10 | 348 | 3.2 | 12.9 | 0.00 | 0.05 | 0.05 | 70 | 1021.3 |
| 20260505191004 | 10 | 4 | 4.8 | 12.9 | 0.00 | 0.05 | 0.05 | 70 | 1021.1 |
| 20260505190004 | 11 | 38 | 3.2 | 11.3 | 0.00 | 0.05 | 0.05 | 69 | 1021.3 |
| 20260505185504 | 11 | 349 | 3.2 | 11.3 | 0.00 | 0.05 | 0.05 | 68 | 1021.0 |
| 20260505185003 | 10 | 29 | 4.8 | 11.3 | 0.00 | 0.05 | 0.05 | 68 | 1021.3 |
| 20260505184004 | 10 | 346 | 3.2 | 12.9 | 0.00 | 0.05 | 0.05 | 69 | 1021.1 |
| 20260505182503 | 10 | 45 | 4.8 | 16.1 | 0.00 | 0.05 | 0.05 | 67 | 1021.0 |
| 20260505182004 | 11 | 348 | 1.6 | 16.1 | 0.00 | 0.05 | 0.05 | 68 | 1021.0 |
| 20260505181504 | 11 | 276 | 6.4 | 12.9 | 0.00 | 0.05 | 0.05 | 67 | 1021.0 |
| 20260505181003 | 11 | 337 | 4.8 | 12.9 | 0.00 | 0.05 | 0.05 | 66 | 1021.0 |
| 20260505180503 | 11 | 27 | 6.4 | 12.9 | 0.00 | 0.05 | 0.05 | 66 | 1021.3 |
| 20260505180004 | 11 | 345 | 4.8 | 12.9 | 0.00 | 0.05 | 0.05 | 66 | 1021.0 |
| 20260505175003 | 11 | 307 | 4.8 | 14.5 | 0.00 | 0.05 | 0.05 | 68 | 1021.0 |
| 20260505174009 | 11 | 339 | 3.2 | 14.5 | 0.00 | 0.05 | 0.05 | 67 | 1021.1 |
| 20260505173504 | 11 | 358 | 8.0 | 16.1 | 0.00 | 0.05 | 0.05 | 67 | 1021.3 |
| 20260505173004 | 11 | 312 | 3.2 | 16.1 | 0.00 | 0.05 | 0.05 | 67 | 1021.0 |
| 20260505172504 | 11 | 247 | 3.2 | 12.9 | 0.00 | 0.05 | 0.05 | 66 | 1021.0 |
| 20260505172004 | 11 | 84 | 4.8 | 12.9 | 0.00 | 0.05 | 0.05 | 62 | 1021.0 |
| 20260505170503 | 12 | 40 | 3.2 | 14.5 | 0.00 | 0.05 | 0.05 | 62 | 1021.0 |
| 20260505170003 | 12 | 303 | 3.2 | 12.9 | 0.00 | 0.05 | 0.05 | 61 | 1021.0 |
| 20260505165504 | 12 | 31 | 3.2 | 12.9 | 0.00 | 0.05 | 0.05 | 62 | 1021.0 |
| 20260505165003 | 11 | 335 | 4.8 | 11.3 | 0.00 | 0.05 | 0.05 | 63 | 1021.0 |
| 20260505164504 | 11 | 311 | 3.2 | 9.7 | 0.00 | 0.05 | 0.05 | 64 | 1021.0 |
| 20260505163504 | 12 | 66 | 3.2 | 12.9 | 0.00 | 0.05 | 0.05 | 64 | 1021.0 |
| 20260505163004 | 12 | 337 | 3.2 | 12.9 | 0.00 | 0.05 | 0.05 | 63 | 1021.0 |
| 20260505162504 | 12 | 25 | 4.8 | 12.9 | 0.00 | 0.05 | 0.05 | 61 | 1021.3 |
| 20260505162004 | 12 | 293 | 4.8 | 12.9 | 0.00 | 0.05 | 0.05 | 59 | 1021.0 |
| 20260505161504 | 12 | 322 | 6.4 | 11.3 | 0.00 | 0.05 | 0.05 | 59 | 1021.0 |
| 20260505161004 | 12 | 12 | 3.2 | 11.3 | 0.00 | 0.05 | 0.05 | 61 | 1021.0 |
| 20260505160503 | 13 | 325 | 4.8 | 12.9 | 0.00 | 0.05 | 0.05 | 58 | 1020.8 |
| 20260505152503 | 13 | 207 | 3.2 | 11.3 | 0.00 | 0.05 | 0.05 | 55 | 1021.1 |
| 20260505151503 | 15 | 295 | 6.4 | 12.9 | 0.00 | 0.05 | 0.05 | 56 | 1021.1 |
| 20260505151004 | 15 | 263 | 6.4 | 12.9 | 0.00 | 0.05 | 0.05 | 54 | 1021.0 |
| 20260505150504 | 14 | 296 | 6.4 | 12.9 | 0.00 | 0.05 | 0.05 | 55 | 1021.2 |
| 20260505140504 | 12 | 316 | 4.8 | 12.9 | 0.00 | 0.05 | 0.05 | 62 | 1021.3 |
| 20260505125003 | 12 | 293 | 4.8 | 14.5 | 0.00 | 0.05 | 0.05 | 63 | 1021.3 |
| 20260505124504 | 12 | 310 | 3.2 | 14.5 | 0.00 | 0.05 | 0.05 | 61 | 1021.3 |
| 20260505123504 | 12 | 354 | 3.2 | 14.5 | 0.00 | 0.05 | 0.05 | 64 | 1021.3 |
| 20260505122004 | 12 | 22 | 4.8 | 14.5 | 0.00 | 0.05 | 0.05 | 65 | 1021.7 |
| 20260505120503 | 12 | 350 | 4.8 | 14.5 | 0.00 | 0.05 | 0.05 | 65 | 1021.7 |
| 20260505120004 | 12 | 343 | 6.4 | 14.5 | 0.00 | 0.05 | 0.05 | 69 | 1021.7 |
| 20260505115503 | 11 | 353 | 8.0 | 12.9 | 0.00 | 0.05 | 0.05 | 69 | 1021.7 |
| 20260505115003 | 12 | 344 | 4.8 | 11.3 | 0.00 | 0.05 | 0.05 | 70 | 1021.8 |
| 20260505114504 | 11 | 14 | 6.4 | 14.5 | 0.00 | 0.05 | 0.05 | 70 | 1021.7 |
| 20260505114003 | 11 | 342 | 8.0 | 14.5 | 0.00 | 0.05 | 0.05 | 70 | 1021.7 |
| 20260505113504 | 11 | 350 | 4.8 | 14.5 | 0.00 | 0.05 | 0.05 | 71 | 1021.7 |
| 20260505112503 | 11 | 343 | 4.8 | 11.3 | 0.00 | 0.05 | 0.05 | 73 | 1021.7 |
| 20260505111003 | 11 | 330 | 1.6 | 11.3 | 0.00 | 0.05 | 0.05 | 72 | 1021.7 |
| 20260505110503 | 12 | 91 | 3.2 | 12.9 | 0.00 | 0.05 | 0.05 | 74 | 1021.8 |